This demonstration page uses our WeatherBlox Daily Observations layout. Learn more.

Left ArrowRight Arrow

Hourly Observations for March 25, 2020

Temp ( °F °C ) Dew Point ( °F °C ) Humidity (%) Winds ( mph kmh ) Pressure ( in mb ) Visibility ( mi km ) Precip ( " mm )
12:54 am 00:54 Clear with Mist and Fog 44 6.7 42 5.6 93 93 SE 6 9 29.85 1011 6 9.65604 0 0
1:54 am 01:54 Clear with Mist and Fog 44 6.7 42 5.6 93 93 SE 5 7 29.83 1010 6 9.65604 0 0
2:54 am 02:54 Clear with Mist and Fog 43 6.1 41 5 93 93 SSE 5 7 29.83 1010 6 9.65604 0 0
3:54 am 03:54 Clear with Mist and Fog 46 7.8 44 6.7 93 93 S 7 11 29.8 1009 5 8.0467 0 0
4:54 am 04:54 Clear 47 8.3 45 7.2 93 93 S 7 11 29.78 1009 7 11.26538 0 0
5:05 am 05:05 Mostly Clear 47 8.3 45 7.2 93 93 S 8 13 29.81 1009 8 12.87472 0 0
5:19 am 05:19 Mostly Cloudy 47 8.3 45 7.2 93 93 S 12 19 29.81 1009 8 12.87472 0 0
5:54 am 05:54 Cloudy 47 8.3 45 7.2 93 93 S 13 20 29.78 1009 7 11.26538 0 0
6:54 am 06:54 Cloudy with Mist and Fog 48 8.9 46 7.8 93 93 S 8 13 29.78 1009 6 9.65604 0 0
7:05 am 07:05 Cloudy with Mist and Fog 48 8.9 46 7.8 93 93 S 12 19 29.81 1009 5 8.0467 0 0
7:54 am 07:54 Cloudy with Mist and Fog 48 8.9 46 7.8 93 93 S 12 19 29.79 1009 3 4.82802 0 0
8:54 am 08:54 Cloudy with Mist and Fog 49 9.4 47 8.3 93 93 S 13 20 29.79 1009 3 4.82802 0 0
9:54 am 09:54 Cloudy with Mist and Fog 50 10 48 8.9 93 93 S 8 13 29.79 1009 5 8.0467 0 0
10:03 am 10:03 Cloudy with Mist and Fog 51 10.6 49 9.4 92 92 Calm 29.8 1009 1.25 2.011675 0 0
10:11 am 10:11 Cloudy 51 10.6 49 9.4 92 92 undefined N/A 29.79 1009 N/A 0 0
10:54 am 10:54 Cloudy with Mist and Fog 53 11.7 49 9.4 86 86 S 12 19 29.77 1008 4 6.43736 0 0
11:54 am 11:54 Cloudy 56 13.3 49 9.4 77 77 S 17 28 29.74 1007 10 16.0934 0 0
12:38 pm 12:38 Mostly Cloudy 60 15.6 49 9.4 67 67 S 20 31 29.7 1006 10 16.0934 0 0
12:54 pm 12:54 Mostly Cloudy 60 15.6 49 9.4 67 67 S 16 26 29.7 1006 10 16.0934 0 0
1:16 pm 13:16 Mostly Cloudy 59 15 48 8.9 67 67 S 20 31 29.68 1005 10 16.0934 0 0
1:54 pm 13:54 Cloudy 61 16.1 49 9.4 65 65 S 16 26 29.68 1005 10 16.0934 0 0
2:34 pm 14:34 Cloudy 65 18.3 50 10 59 59 S 12 19 29.63 1004 10 16.0934 0 0
2:54 pm 14:54 Mostly Cloudy 67 19.4 51 10.6 57 57 SSE 12 19 29.64 1004 10 16.0934 0 0
3:54 pm 15:54 Partly Cloudy 73 22.8 48 8.9 41 41 SW 12 19 29.61 1003 10 16.0934 0 0
4:20 pm 16:20 Mostly Sunny 74 23.3 46 7.8 37 37 W 15 24 29.58 1002 10 16.0934 0 0
4:54 pm 16:54 Sunny 75 23.9 45 7.2 34 34 WNW 16 26 29.61 1003 10 16.0934 0 0
5:54 pm 17:54 Sunny 73 22.8 43 6.1 34 34 NW 14 22 29.63 1003 10 16.0934 0 0
6:54 pm 18:54 Sunny 68 20 48 8.9 49 49 NNW 14 22 29.67 1005 10 16.0934 0 0
7:54 pm 19:54 Clear 58 14.4 48 8.9 70 70 N 12 19 29.71 1006 10 16.0934 0 0
8:54 pm 20:54 Clear 52 11.1 46 7.8 80 80 N 17 28 29.76 1008 10 16.0934 0 0
9:25 pm 21:25 Mostly Cloudy 49 9.4 45 7.2 86 86 N 20 31 29.79 1009 10 16.0934 0 0
9:54 pm 21:54 Cloudy 47 8.3 44 6.7 90 90 N 18 30 29.79 1009 10 16.0934 0 0
10:54 pm 22:54 Cloudy 45 7.2 42 5.6 90 90 N 15 24 29.81 1010 10 16.0934 0 0
11:02 pm 23:02 Cloudy 45 7.2 42 5.6 90 90 N 14 22 29.83 1010 10 16.0934 0 0
11:54 pm 23:54 Cloudy with Mist and Fog 44 6.7 42 5.6 93 93 N 15 24 29.82 1010 5 8.0467 0 0

Powered by AerisWeather